USA 342

Last updated on Sat Jun 20 2026 00:03:07 GMT+0000 (Coordinated Universal Time)

1 55263U 23008A 26170.70365845 .00000000 00000+0 00000+0 0 9996 2 55263 0.0057 73.3519 0000125 107.0449 4.6843 1.00267812 12540
UTC large
Height (km)
Speed (km/s)
/
Latitude / Longitude
Inclination (degrees)
Orbital Period (minutes)
Azimuth
Elevation
Range (km)
Doppler Factor

Next 0 passes for location: London (51.5072 / 0.1276)

No passes found over London.
USA 342